Location: fuzhou
(26.1169°N, 119.3250°E)
Time: 14:12:12
(UTC+08:00)

Hubble Space Telescope - Visible Passes

Search period start: 17 July 2018 00:00
Search period end: 27 July 2018 00:00
Orbit: 537 x 541 km, 28.5° (Epoch: 16 July)

Date Brightness Start Highest point End Pass type
(mag) Time Alt. Az. Time Alt. Az. Time Alt. Az.
17 Jul 0.7 03:23:35 82° NE 03:23:35 82° NE 03:27:34 10° ENE visible
18 Jul 1.1 03:13:43 61° NE 03:13:43 61° NE 03:17:14 10° ENE visible
18 Jul 1.2 04:50:24 10° WNW 04:54:29 62° N 04:58:34 10° E visible
19 Jul 1.7 03:03:54 45° ENE 03:03:54 45° ENE 03:06:55 10° ENE visible
19 Jul 1.1 04:40:05 10° WNW 04:44:10 66° N 04:48:17 10° E visible
20 Jul 2.3 02:54:08 33° ENE 02:54:08 33° ENE 02:56:36 10° ENE visible
20 Jul 1.0 04:29:45 10° WNW 04:33:52 71° N 04:37:59 10° E visible
21 Jul 2.9 02:44:28 24° ENE 02:44:28 24° ENE 02:46:17 10° E visible
21 Jul 0.8 04:19:50 13° WNW 04:23:34 80° NNE 04:27:41 10° E visible
22 Jul 3.4 02:34:56 17° ENE 02:34:56 17° ENE 02:35:59 10° E visible
22 Jul 0.7 04:10:18 19° WNW 04:13:13 90° SSW 04:17:21 10° ESE visible
23 Jul 3.8 02:25:33 11° E 02:25:33 11° E 02:25:41 10° E visible
23 Jul 0.6 04:00:55 30° W 04:02:53 77° SSW 04:07:00 10° ESE visible
24 Jul 0.7 03:51:43 50° WSW 03:52:32 63° SSW 03:56:36 10° ESE visible
25 Jul 1.1 03:42:43 47° S 03:42:43 47° S 03:46:10 10° ESE visible
26 Jul 2.4 03:33:54 22° SE 03:33:54 22° SE 03:35:39 10° SE visible
26 Jul 2.6 20:32:59 10° SW 20:34:27 19° SSW 20:34:27 19° SSW visible
